SCP
-0 0 -0 -0 -0 0 0 0 -0 0 0 -0 0 0 -0 -0 -0 0 0 -0 -0 -0 -0 -0 -0 -0 -0 -0 -0 -0 -0 -0 0 0 0 -0 -0 0 0 0 0 0 0 0
0 0 -0 -0 0 0 0 0 0 0 0 -0 -0 -0 0 -0 -0 -0 -0 -0 -0 -0 -0 -0 -0 -0 -0 -0 -0 -0 -0 -0 -0 -0 -0 -0 0 0 0 0 0 0 -0 -0
-0 -0 -0 -0 0 0 0 -0 0 0 0 -0 -0 0 -0 -0 -0 -0 -0 -0 -0 -0 -0 -0 -0 -0 -0 -0 -0 -0 -0 -0 -0 -0 0 0 0 0 0 0 -0 -0 0 -0
-0 0 -0 0 0 0 -0 0 0 0 -0 -0 0 -0 -0 0 0 -0 -0 -0 -0 -0 -0 -0 -0 -0 -0 -0 -0 -0 -0 -1 -0 -0 -0 -0 -0 0 0 0 -0 -0 0 -0
0 0 0 0 0 0 0 0 0 0 0 -0 -0 0 0 -0 0 -0 -0 0 -0 -0 -0 -0 -0 -0 -0 -0 -0 -0 -1 -1 -1 -1 -0 -0 -0 -0 -0 0 -0 -0 -0 0
0 0 0 0 0 0 0 0 0 0 0 0 -0 -0 0 0 -0 -0 0 0 0 -0 -0 0 -0 -0 -0 -0 -0 -0 -1 -1 -1 -1 -1 -1 -0 -0 -0 -0 -0 -0 0 0
0 0 0 0 0 0 0 0 0 0 0 0 -0 -0 -0 0 0 0 0 0 0 0 -0 -0 -0 -0 -0 -0 -0 -0 -1 -1 -1 -1 -1 -1 -0 -0 -0 -0 -0 0 -0 0
0 0 -0 0 0 0 0 0 0 0 0 0 -0 0 0 0 0 0 0 0 0 0 -0 -1 -0 -0 -0 -0 -1 -0 -1 -1 -1 -1 -1 -0 -0 -0 -0 -0 0 0 0 0
0 0 0 0 0 0 0 0 0 0 0 0 0 0 0 0 0 0 0 0 0 0 -0 -1 -0 -0 -0 -0 -0 -1 -1 -1 -0 -0 0 0 0 0 0 0 0 0 0 0
0 0 0 0 0 0 0 0 0 0 0 0 0 0 0 0 0 0 0 0 0 0 0 -0 -0 -0 -0 -0 -0 -0 -1 -1 -1 -0 -0 0 0 0 0 0 0 0 1 0
0 0 0 0 0 0 0 0 0 0 0 0 0 0 0 0 0 0 0 0 0 0 0 0 -0 -0 -0 -0 -1 -0 -1 -1 -1 -0 -0 0 0 0 0 1 1 1 0 0
0 0 -0 0 0 0 0 0 0 0 0 0 0 0 0 0 0 0 0 0 0 0 0 0 0 -0 -0 -1 -1 -1 -1 -1 -1 -1 -0 -0 -0 0 1 1 1 1 0 0
0 0 -0 0 -0 0 0 0 0 0 0 0 0 0 0 0 0 0 0 0 0 0 0 0 0 0 0 -0 -0 -1 -1 -1 -1 -1 -1 -0 -0 0 0 1 1 1 0 0
0 0 0 0 -0 0 -0 0 0 0 0 0 0 0 0 0 0 0 0 0 0 0 0 0 0 1 1 0 -1 -2 -2 -1 -1 -1 -1 -0 0 0 1 1 1 0 0 0
0 -0 0 0 0 0 0 0 0 0 0 0 0 0 0 0 0 0 0 0 0 0 0 0 0 1 1 1 -0 -1 -1 -1 -0 -0 -1 -0 1 1 1 1 0 0 0 0
-0 0 0 -0 0 0 0 0 0 0 0 0 0 0 0 0 0 0 0 0 0 0 0 0 0 1 1 1 1 1 1 0 1 1 0 0 1 1 0 0 0 0 0 0
-0 -0 0 -0 0 0 0 -0 0 0 0 -0 0 0 0 0 0 0 0 0 0 0 0 0 0 0 1 1 1 1 2 1 2 1 1 1 1 1 1 0 0 0 0 0
0 0 -0 -0 0 -0 0 0 0 0 0 0 0 0 0 0 0 0 1 1 0 0 0 0 0 0 0 0 1 1 2 3 2 1 0 1 1 1 1 0 0 0 0 0
0 0 0 0 0 0 0 0 0 0 0 0 0 0 0 0 0 1 1 1 1 1 0 -0 0 1 0 0 1 2 3 2 3 1 0 1 1 0 0 0 0 0 0 0
-0 0 0 0 0 0 0 0 0 0 0 0 1 1 1 0 0 1 1 1 1 1 1 0 -0 0 1 1 1 2 3 3 2 2 1 1 1 1 0 0 0 0 0 0
0 0 0 0 0 0 0 0 0 0 0 1 1 1 1 1 1 1 1 1 1 2 2 1 1 0 2 2 2 2 3 3 2 0 1 2 1 0 0 0 0 0 0 0
0 0 0 0 0 0 0 0 0 0 0 1 1 1 0 0 1 1 1 2 2 2 2 2 1 3 3 4 5 3 2 2 1 1 2 1 0 0 0 0 0 0 0 0
0 0 0 0 0 0 0 0 0 0 0 0 1 0 0 0 0 0 1 1 1 1 1 1 2 2 2 2 3 3 2 1 1 2 1 1 1 0 0 0 0 0 0 0
0 0 0 0 0 0 0 0 0 0 0 1 0 0 0 0 0 0 0 1 1 1 1 0 0 0 0 1 2 1 1 2 2 2 1 0 0 0 0 0 0 0 0 0
0 0 0 0 0 0 0 0 0 0 0 0 0 0 0 0 0 0 0 0 0 0 0 0 0 0 0 1 1 1 1 2 2 1 1 0 0 0 0 0 0 0 0 0
0 0 0 0 0 0 0 0 0 0 0 0 0 0 0 0 0 0 1 0 0 -0 -0 -0 0 0 0 0 1 1 2 2 2 1 1 0 0 0 0 0 0 0 0 0
Wind_Speed_500mb
43 32 33 39 26 21 22 13 10 4 7 13 9 10 23 40 39 40 42 42 44 44 43 43 44 43 40 37 38 38 36 33 28 26 18 17 16 19 19 18 23 12 8 8
39 39 40 37 28 18 13 21 20 4 9 15 23 20 18 39 38 43 43 43 43 43 45 46 46 46 44 44 41 40 40 37 36 27 25 23 20 21 22 18 18 16 14 8
44 42 37 44 22 26 29 32 25 17 22 31 29 28 23 31 41 41 43 45 45 47 52 51 51 51 47 46 47 45 44 42 39 30 32 26 23 28 29 27 19 17 12 12
44 37 50 25 30 33 37 31 17 12 25 25 13 22 26 14 31 34 43 48 50 50 50 56 55 54 53 50 49 48 48 48 43 42 32 32 21 22 23 26 23 20 11 17
33 38 43 28 38 36 37 35 14 24 29 34 37 19 17 27 18 32 34 44 52 57 56 56 58 57 53 51 51 51 51 52 46 46 39 34 28 22 17 18 18 20 21 15
37 5 15 32 40 45 42 40 25 32 31 29 36 33 27 16 34 24 41 40 46 57 61 56 54 54 53 51 49 50 52 54 52 49 48 43 35 25 22 20 18 16 14 19
31 28 27 29 27 27 26 35 29 32 30 29 37 33 33 5 12 9 16 21 41 52 65 62 60 60 57 58 53 49 53 57 56 54 53 46 39 33 27 24 19 20 18 17
23 35 45 35 32 36 34 34 30 41 33 33 40 38 13 18 29 9 13 16 5 40 63 71 66 61 60 60 58 55 58 55 54 55 56 52 44 32 26 26 24 21 23 21
30 31 20 8 20 29 38 37 34 41 41 32 35 27 17 8 16 28 22 5 14 29 51 71 72 67 63 61 61 63 65 58 52 50 52 49 47 40 30 30 27 24 21 32
26 19 29 23 26 34 34 34 28 24 39 39 32 37 23 20 6 10 16 12 14 22 42 62 71 70 67 63 61 61 69 66 57 49 48 47 47 43 38 34 32 26 29 25
21 23 24 5 25 28 25 30 36 39 26 26 29 28 35 34 19 19 22 15 5 25 40 53 67 71 70 65 64 62 60 59 59 54 49 47 45 43 40 38 32 31 34 26
19 20 24 28 23 19 24 31 32 27 38 29 30 31 13 7 7 10 11 17 15 17 35 48 62 69 72 69 69 67 64 64 60 56 52 48 46 45 45 42 37 38 34 27
24 18 26 21 32 31 19 33 34 39 37 40 31 27 21 16 16 20 17 19 13 14 27 38 56 68 71 71 71 72 71 65 60 60 54 51 48 51 47 42 41 39 34 29
11 27 34 30 38 10 41 21 24 33 25 32 35 38 29 31 31 22 21 14 16 21 27 36 50 61 68 71 72 74 68 64 63 62 59 58 52 48 42 41 39 35 32 30
27 31 29 36 41 44 39 39 35 33 34 35 38 42 35 31 16 23 15 21 23 24 29 39 47 59 65 69 70 70 63 65 65 68 61 58 52 51 50 45 42 36 33 31
23 27 30 34 36 39 49 50 44 43 42 37 35 32 37 33 11 13 19 23 27 29 28 35 45 55 62 65 67 63 66 69 69 70 60 57 60 53 50 46 43 38 34 31
29 26 28 34 33 31 34 42 44 44 46 47 30 26 6 14 21 20 20 15 19 22 25 30 46 53 57 58 57 57 63 65 66 68 64 66 62 57 54 48 42 39 36 30
34 29 24 27 28 34 35 32 33 35 32 36 30 19 23 17 26 28 11 18 26 25 23 27 35 49 53 52 55 55 60 69 70 71 74 71 68 63 57 49 49 46 38 31
30 26 23 25 29 34 34 29 22 26 33 31 41 11 17 25 36 4 15 23 26 29 25 22 27 37 46 49 55 60 66 70 76 82 81 75 69 63 58 56 53 47 40 34
20 23 21 25 29 33 26 16 15 18 25 19 32 19 19 31 22 21 31 30 29 26 20 16 18 32 40 45 53 64 69 82 83 86 85 73 65 61 56 58 56 49 38 35
18 19 25 24 25 31 22 14 7 21 7 19 19 17 21 17 17 25 29 30 29 24 21 10 11 26 36 44 51 60 69 77 80 84 76 68 68 62 54 57 55 48 45 40
24 24 24 24 31 38 15 15 17 16 15 15 15 19 21 21 24 26 29 29 27 26 19 12 4 10 25 38 54 58 65 73 80 79 73 73 65 59 62 64 60 51 45 38
25 25 25 33 25 5 10 10 19 22 23 20 13 24 22 32 27 26 31 30 25 25 19 10 5 10 16 37 50 56 71 77 71 72 68 69 66 65 63 59 51 46 41 36
32 35 28 33 33 41 43 33 33 25 33 19 23 26 26 27 32 40 29 33 27 23 17 15 13 16 21 33 45 58 64 68 76 71 62 60 62 56 51 53 48 41 41 40
31 39 36 36 35 42 50 45 41 42 19 17 27 29 32 34 33 34 34 31 27 17 17 13 12 15 18 32 48 48 62 73 63 66 64 63 53 52 45 43 44 39 37 40
42 38 31 33 40 44 43 47 46 50 41 31 36 42 34 32 36 37 37 34 34 25 19 16 12 16 23 28 42 48 62 65 68 63 65 55 51 45 43 41 37 43 38 46
Wind_Direction_500mb
215 236 241 251 253 149 268 355 311 81 56 288 297 274 182 180 201 195 198 196 194 198 195 194 193 192 192 192 194 196 193 195 197 205 210 203 198 202 203 213 223 221 198 194
241 223 250 251 273 294 256 268 267 202 155 279 279 281 184 172 200 204 199 198 200 193 186 191 192 191 193 194 195 196 195 198 198 200 203 209 192 204 199 198 212 197 178 185
232 239 226 253 264 254 256 264 278 315 318 270 258 275 176 173 181 201 203 202 202 198 189 192 195 195 194 194 195 197 196 199 198 195 211 189 194 199 208 191 188 176 178 179
247 242 261 263 255 265 263 263 337 302 270 284 302 302 224 152 180 189 202 203 202 201 202 188 197 198 198 198 199 199 198 197 202 191 202 194 197 198 206 202 205 210 221 219
236 238 250 243 260 254 263 288 317 295 281 279 271 255 135 195 185 188 199 206 205 200 203 196 196 199 199 199 202 203 202 201 200 205 196 203 194 196 202 203 213 220 217 203
260 321 278 265 257 251 265 271 266 257 259 260 265 274 271 127 193 208 175 191 209 206 201 206 196 197 197 197 198 200 202 203 199 207 196 201 205 199 190 190 197 203 204 219
222 227 225 252 265 252 246 249 251 245 236 245 251 246 255 189 185 323 94 159 189 208 198 202 197 195 196 195 194 194 198 201 201 205 205 201 200 197 198 193 189 198 208 205
252 220 212 212 236 261 227 244 253 254 258 262 251 245 222 250 273 320 269 163 228 196 203 198 202 198 195 196 194 194 197 199 199 203 205 203 197 202 202 209 203 199 205 210
278 252 240 262 273 233 250 257 264 274 273 272 279 283 264 259 284 268 257 354 173 205 203 197 200 199 194 197 195 194 201 203 202 199 200 199 200 193 205 211 200 208 198 216
286 297 291 261 216 251 266 278 263 230 260 271 273 267 264 252 150 289 270 73 148 205 201 199 199 200 195 197 197 196 204 208 205 194 196 197 200 199 201 200 205 201 200 200
304 285 273 192 253 255 208 237 251 273 281 267 254 255 260 243 194 248 278 111 205 194 195 201 199 200 199 198 198 196 196 194 197 192 193 194 198 201 200 202 200 195 211 219
347 308 296 286 284 232 289 280 231 236 247 256 281 287 252 329 280 191 348 312 298 221 202 199 198 197 198 196 196 197 197 196 194 192 193 193 193 196 199 199 196 204 214 222
344 289 299 269 241 204 229 250 263 276 280 273 271 267 259 295 284 247 277 303 317 254 217 204 197 195 195 195 195 196 198 196 192 190 193 192 191 196 197 197 204 207 213 216
288 267 275 286 312 204 300 300 285 278 277 276 270 274 271 281 275 276 308 15 314 280 241 219 201 198 196 198 197 194 195 194 190 191 191 192 188 192 185 189 197 203 208 217
246 275 287 291 295 298 289 287 283 278 280 283 296 299 303 302 347 15 338 306 312 287 253 220 212 199 198 198 196 194 194 191 190 190 187 189 185 185 187 197 200 203 210 216
274 284 282 269 272 273 280 280 278 273 274 275 279 280 282 294 331 315 318 317 308 294 266 233 215 206 204 203 198 193 189 189 187 184 182 184 186 185 198 194 203 209 207 210
280 283 280 275 288 290 275 257 257 269 274 274 268 278 360 313 319 323 307 321 311 312 281 253 224 216 208 205 198 195 187 185 185 179 184 187 188 190 195 197 205 202 204 209
260 257 272 277 276 269 272 298 282 294 291 302 298 310 309 332 293 287 91 337 316 310 293 265 240 219 211 207 200 192 187 183 184 183 191 194 190 191 196 200 198 196 201 204
243 251 262 266 260 271 274 269 286 273 270 286 289 284 322 320 308 173 20 342 327 318 304 278 240 222 211 205 194 189 187 184 186 191 192 191 188 193 197 196 192 194 196 194
270 235 246 256 272 278 305 3 23 327 278 293 5 17 357 324 295 45 347 347 344 341 330 303 240 210 202 199 191 188 188 193 193 195 191 189 186 194 196 196 197 197 200 193
227 235 252 245 256 268 282 307 14 266 331 3 354 350 343 343 335 327 338 343 348 345 351 336 250 212 200 196 192 189 193 196 197 193 188 185 192 198 205 200 201 200 188 182
275 263 247 247 254 262 5 315 250 342 330 354 327 333 326 323 328 344 342 342 348 352 2 357 253 198 191 190 194 193 194 197 196 191 191 190 195 193 195 202 198 189 178 185
255 253 272 282 282 331 314 284 292 307 309 306 327 311 315 313 324 335 339 340 351 354 348 344 274 227 204 209 209 201 202 198 195 189 191 190 189 188 196 197 193 186 184 177
270 258 262 269 264 283 297 296 299 297 278 304 303 305 311 309 316 310 325 339 335 340 335 310 288 266 236 204 202 211 206 202 194 198 189 187 188 194 193 190 193 190 185 183
281 297 281 269 276 277 273 276 282 283 263 279 289 298 302 300 306 309 290 320 323 321 314 311 284 256 241 219 211 213 207 191 188 195 188 190 185 188 189 184 193 186 193 191
264 267 267 272 281 287 289 294 299 298 291 270 289 293 294 296 297 304 308 285 297 295 287 305 290 266 239 222 218 212 201 194 193 190 191 183 192 185 185 185 191 183 199 196
Wind_Speed_850mb
43 32 33 39 26 21 22 13 10 4 7 13 9 10 23 40 39 40 42 42 44 44 43 43 44 43 40 37 38 38 36 33 28 26 18 17 16 19 19 18 23 12 8 8
39 39 40 37 28 18 13 21 20 4 9 15 23 20 18 39 38 43 43 43 43 43 45 46 46 46 44 44 41 40 40 37 36 27 25 23 20 21 22 18 18 16 14 8
44 42 37 44 22 26 29 32 25 17 22 31 29 28 23 31 41 41 43 45 45 47 52 51 51 51 47 46 47 45 44 42 39 30 32 26 23 28 29 27 19 17 12 12
44 37 50 25 30 33 37 31 17 12 25 25 13 22 26 14 31 34 43 48 50 50 50 56 55 54 53 50 49 48 48 48 43 42 32 32 21 22 23 26 23 20 11 17
33 38 43 28 38 36 37 35 14 24 29 34 37 19 17 27 18 32 34 44 52 57 56 56 58 57 53 51 51 51 51 52 46 46 39 34 28 22 17 18 18 20 21 15
37 5 15 32 40 45 42 40 25 32 31 29 36 33 27 16 34 24 41 40 46 57 61 56 54 54 53 51 49 50 52 54 52 49 48 43 35 25 22 20 18 16 14 19
31 28 27 29 27 27 26 35 29 32 30 29 37 33 33 5 12 9 16 21 41 52 65 62 60 60 57 58 53 49 53 57 56 54 53 46 39 33 27 24 19 20 18 17
23 35 45 35 32 36 34 34 30 41 33 33 40 38 13 18 29 9 13 16 5 40 63 71 66 61 60 60 58 55 58 55 54 55 56 52 44 32 26 26 24 21 23 21
30 31 20 8 20 29 38 37 34 41 41 32 35 27 17 8 16 28 22 5 14 29 51 71 72 67 63 61 61 63 65 58 52 50 52 49 47 40 30 30 27 24 21 32
26 19 29 23 26 34 34 34 28 24 39 39 32 37 23 20 6 10 16 12 14 22 42 62 71 70 67 63 61 61 69 66 57 49 48 47 47 43 38 34 32 26 29 25
21 23 24 5 25 28 25 30 36 39 26 26 29 28 35 34 19 19 22 15 5 25 40 53 67 71 70 65 64 62 60 59 59 54 49 47 45 43 40 38 32 31 34 26
19 20 24 28 23 19 24 31 32 27 38 29 30 31 13 7 7 10 11 17 15 17 35 48 62 69 72 69 69 67 64 64 60 56 52 48 46 45 45 42 37 38 34 27
24 18 26 21 32 31 19 33 34 39 37 40 31 27 21 16 16 20 17 19 13 14 27 38 56 68 71 71 71 72 71 65 60 60 54 51 48 51 47 42 41 39 34 29
11 27 34 30 38 10 41 21 24 33 25 32 35 38 29 31 31 22 21 14 16 21 27 36 50 61 68 71 72 74 68 64 63 62 59 58 52 48 42 41 39 35 32 30
27 31 29 36 41 44 39 39 35 33 34 35 38 42 35 31 16 23 15 21 23 24 29 39 47 59 65 69 70 70 63 65 65 68 61 58 52 51 50 45 42 36 33 31
23 27 30 34 36 39 49 50 44 43 42 37 35 32 37 33 11 13 19 23 27 29 28 35 45 55 62 65 67 63 66 69 69 70 60 57 60 53 50 46 43 38 34 31
29 26 28 34 33 31 34 42 44 44 46 47 30 26 6 14 21 20 20 15 19 22 25 30 46 53 57 58 57 57 63 65 66 68 64 66 62 57 54 48 42 39 36 30
34 29 24 27 28 34 35 32 33 35 32 36 30 19 23 17 26 28 11 18 26 25 23 27 35 49 53 52 55 55 60 69 70 71 74 71 68 63 57 49 49 46 38 31
30 26 23 25 29 34 34 29 22 26 33 31 41 11 17 25 36 4 15 23 26 29 25 22 27 37 46 49 55 60 66 70 76 82 81 75 69 63 58 56 53 47 40 34
20 23 21 25 29 33 26 16 15 18 25 19 32 19 19 31 22 21 31 30 29 26 20 16 18 32 40 45 53 64 69 82 83 86 85 73 65 61 56 58 56 49 38 35
18 19 25 24 25 31 22 14 7 21 7 19 19 17 21 17 17 25 29 30 29 24 21 10 11 26 36 44 51 60 69 77 80 84 76 68 68 62 54 57 55 48 45 40
24 24 24 24 31 38 15 15 17 16 15 15 15 19 21 21 24 26 29 29 27 26 19 12 4 10 25 38 54 58 65 73 80 79 73 73 65 59 62 64 60 51 45 38
25 25 25 33 25 5 10 10 19 22 23 20 13 24 22 32 27 26 31 30 25 25 19 10 5 10 16 37 50 56 71 77 71 72 68 69 66 65 63 59 51 46 41 36
32 35 28 33 33 41 43 33 33 25 33 19 23 26 26 27 32 40 29 33 27 23 17 15 13 16 21 33 45 58 64 68 76 71 62 60 62 56 51 53 48 41 41 40
31 39 36 36 35 42 50 45 41 42 19 17 27 29 32 34 33 34 34 31 27 17 17 13 12 15 18 32 48 48 62 73 63 66 64 63 53 52 45 43 44 39 37 40
42 38 31 33 40 44 43 47 46 50 41 31 36 42 34 32 36 37 37 34 34 25 19 16 12 16 23 28 42 48 62 65 68 63 65 55 51 45 43 41 37 43 38 46
Wind_Direction_850mb
215 236 241 251 253 149 268 355 311 81 56 288 297 274 182 180 201 195 198 196 194 198 195 194 193 192 192 192 194 196 193 195 197 205 210 203 198 202 203 213 223 221 198 194
241 223 250 251 273 294 256 268 267 202 155 279 279 281 184 172 200 204 199 198 200 193 186 191 192 191 193 194 195 196 195 198 198 200 203 209 192 204 199 198 212 197 178 185
232 239 226 253 264 254 256 264 278 315 318 270 258 275 176 173 181 201 203 202 202 198 189 192 195 195 194 194 195 197 196 199 198 195 211 189 194 199 208 191 188 176 178 179
247 242 261 263 255 265 263 263 337 302 270 284 302 302 224 152 180 189 202 203 202 201 202 188 197 198 198 198 199 199 198 197 202 191 202 194 197 198 206 202 205 210 221 219
236 238 250 243 260 254 263 288 317 295 281 279 271 255 135 195 185 188 199 206 205 200 203 196 196 199 199 199 202 203 202 201 200 205 196 203 194 196 202 203 213 220 217 203
260 321 278 265 257 251 265 271 266 257 259 260 265 274 271 127 193 208 175 191 209 206 201 206 196 197 197 197 198 200 202 203 199 207 196 201 205 199 190 190 197 203 204 219
222 227 225 252 265 252 246 249 251 245 236 245 251 246 255 189 185 323 94 159 189 208 198 202 197 195 196 195 194 194 198 201 201 205 205 201 200 197 198 193 189 198 208 205
252 220 212 212 236 261 227 244 253 254 258 262 251 245 222 250 273 320 269 163 228 196 203 198 202 198 195 196 194 194 197 199 199 203 205 203 197 202 202 209 203 199 205 210
278 252 240 262 273 233 250 257 264 274 273 272 279 283 264 259 284 268 257 354 173 205 203 197 200 199 194 197 195 194 201 203 202 199 200 199 200 193 205 211 200 208 198 216
286 297 291 261 216 251 266 278 263 230 260 271 273 267 264 252 150 289 270 73 148 205 201 199 199 200 195 197 197 196 204 208 205 194 196 197 200 199 201 200 205 201 200 200
304 285 273 192 253 255 208 237 251 273 281 267 254 255 260 243 194 248 278 111 205 194 195 201 199 200 199 198 198 196 196 194 197 192 193 194 198 201 200 202 200 195 211 219
347 308 296 286 284 232 289 280 231 236 247 256 281 287 252 329 280 191 348 312 298 221 202 199 198 197 198 196 196 197 197 196 194 192 193 193 193 196 199 199 196 204 214 222
344 289 299 269 241 204 229 250 263 276 280 273 271 267 259 295 284 247 277 303 317 254 217 204 197 195 195 195 195 196 198 196 192 190 193 192 191 196 197 197 204 207 213 216
288 267 275 286 312 204 300 300 285 278 277 276 270 274 271 281 275 276 308 15 314 280 241 219 201 198 196 198 197 194 195 194 190 191 191 192 188 192 185 189 197 203 208 217
246 275 287 291 295 298 289 287 283 278 280 283 296 299 303 302 347 15 338 306 312 287 253 220 212 199 198 198 196 194 194 191 190 190 187 189 185 185 187 197 200 203 210 216
274 284 282 269 272 273 280 280 278 273 274 275 279 280 282 294 331 315 318 317 308 294 266 233 215 206 204 203 198 193 189 189 187 184 182 184 186 185 198 194 203 209 207 210
280 283 280 275 288 290 275 257 257 269 274 274 268 278 360 313 319 323 307 321 311 312 281 253 224 216 208 205 198 195 187 185 185 179 184 187 188 190 195 197 205 202 204 209
260 257 272 277 276 269 272 298 282 294 291 302 298 310 309 332 293 287 91 337 316 310 293 265 240 219 211 207 200 192 187 183 184 183 191 194 190 191 196 200 198 196 201 204
243 251 262 266 260 271 274 269 286 273 270 286 289 284 322 320 308 173 20 342 327 318 304 278 240 222 211 205 194 189 187 184 186 191 192 191 188 193 197 196 192 194 196 194
270 235 246 256 272 278 305 3 23 327 278 293 5 17 357 324 295 45 347 347 344 341 330 303 240 210 202 199 191 188 188 193 193 195 191 189 186 194 196 196 197 197 200 193
227 235 252 245 256 268 282 307 14 266 331 3 354 350 343 343 335 327 338 343 348 345 351 336 250 212 200 196 192 189 193 196 197 193 188 185 192 198 205 200 201 200 188 182
275 263 247 247 254 262 5 315 250 342 330 354 327 333 326 323 328 344 342 342 348 352 2 357 253 198 191 190 194 193 194 197 196 191 191 190 195 193 195 202 198 189 178 185
255 253 272 282 282 331 314 284 292 307 309 306 327 311 315 313 324 335 339 340 351 354 348 344 274 227 204 209 209 201 202 198 195 189 191 190 189 188 196 197 193 186 184 177
270 258 262 269 264 283 297 296 299 297 278 304 303 305 311 309 316 310 325 339 335 340 335 310 288 266 236 204 202 211 206 202 194 198 189 187 188 194 193 190 193 190 185 183
281 297 281 269 276 277 273 276 282 283 263 279 289 298 302 300 306 309 290 320 323 321 314 311 284 256 241 219 211 213 207 191 188 195 188 190 185 188 189 184 193 186 193 191
264 267 267 272 281 287 289 294 299 298 291 270 289 293 294 296 297 304 308 285 297 295 287 305 290 266 239 222 218 212 201 194 193 190 191 183 192 185 185 185 191 183 199 196